User: anonymous   Login
Location: Unspecified
(0.0000°N, 0.0000°E)
Time: 08:46:24
(UTC+00:00)
Language:

Sapphire - Orbit

View from above orbital plane
View from above orbital plane
View from above satellite
View from above satellite

Ground track
Ground track

The orbit data is extracted from the following two-line orbital elements,

1 26932U 01043D   24112.41825514  .00000458  00000-0  20612-3 0  9991
2 26932  67.0537 124.7010 0004322 279.0154  81.0458 14.30755012177814
Epoch (UTC): 21 April 2024 10:02:17
Eccentricity: 0.0004322
inclination: 67.0537°
perigee height: 786 km
apogee height: 792 km
right ascension of ascending node: 124.7010°
argument of perigee: 279.0154°
revolutions per day: 14.30755012
mean anomaly at epoch: 81.0458°
orbit number at epoch: 17781

The dashed part of the orbit path shows where the satellite is in the earth's shadow,  

DLR